This demonstration page uses our WeatherBlox Daily Observations layout. Learn more.

Left ArrowRight Arrow

44.8408, -93.29828

Hourly Observations for November 12, 2015

Temp ( °F °C ) Dew Point ( °F °C ) Humidity (%) Winds ( mph kmh ) Pressure ( in mb ) Visibility ( mi km ) Precip ( " mm )
12:00 am 00:00 Cloudy with Rain 45 7 43 6 93 93 NNW 21 33 29.21 989 4 6 0.00 0.00
12:53 am 00:53 Cloudy with Rain 44 6.7 41 5 89 89 NNW 23 37 29.24 990 3 5 0.14 3.56
1:53 am 01:53 Cloudy with Rain 45 7.2 42 5.6 90 90 NW 22 35 29.28 992 5 8 0.14 3.56
2:53 am 02:53 Cloudy with Light Rain 45 7.2 42 5.6 90 90 NW 25 41 29.32 993 6 10 0.05 1.27
3:38 am 03:38 Cloudy with Light Rain 44 6.7 41 5 89 89 NW 25 41 29.38 995 6 10 0.03 0.76
3:53 am 03:53 Cloudy with Light Rain 44 6.7 41 5 89 89 NW 23 37 29.37 995 7 11 0.03 0.76
4:53 am 04:53 Cloudy with Light Rain 43 6.1 40 4.4 89 89 NW 21 33 29.43 997 7 11 0.00 0.03
5:44 am 05:44 Cloudy with Light Rain 42 5.6 39 3.9 89 89 NW 22 35 29.50 999 4 6 0.02 0.51
5:53 am 05:53 Cloudy with Light Rain 41 5 39 3.9 93 93 WNW 23 37 29.49 999 5 8 0.03 0.76
6:53 am 06:53 Cloudy 41 5 37 2.8 86 86 WNW 24 39 29.53 1000 10 16 0.00 0.03
7:53 am 07:53 Cloudy 40 4.4 36 2.2 86 86 WNW 21 33 29.58 1002 8 13 0.00 0.00
8:25 am 08:25 Cloudy 40 4.4 36 2.2 86 86 WNW 18 30 29.62 1003 8 13 0.00 0.00
8:53 am 08:53 Cloudy 40 4.4 36 2.2 86 86 WNW 17 28 29.62 1003 9 14 0.00 0.00
9:45 am 09:45 Cloudy 38 3.3 34 1.1 86 86 W 21 33 29.68 1005 10 16 0.00 0.00
9:53 am 09:53 Cloudy 38 3.3 34 1.1 86 86 W 22 35 29.67 1005 10 16 0.00 0.00
10:32 am 10:32 Mostly Cloudy 38 3.3 32 0 79 79 WNW 16 26 29.71 1006 10 16 0.00 0.00
10:53 am 10:53 Mostly Cloudy 39 3.9 31 -0.6 73 73 WNW 17 28 29.69 1006 10 16 0.00 0.00
11:53 am 11:53 Mostly Sunny 43 6.1 31 -0.6 63 63 W 22 35 29.70 1006 10 16 0.00 0.00
12:43 pm 12:43 Mostly Cloudy 41 5 32 0 70 70 W 21 33 29.74 1007 10 16 0.00 0.00
12:53 pm 12:53 Mostly Cloudy 41 5 32 0 70 70 W 25 41 29.72 1007 9 14 0.00 0.00
1:53 pm 13:53 Cloudy 40 4.4 30 -1.1 68 68 W 24 39 29.75 1008 10 16 0.00 0.00
2:19 pm 14:19 Cloudy 41 5 30 -1.1 65 65 WNW 20 31 29.77 1008 10 16 0.00 0.00
2:53 pm 14:53 Cloudy 41 5 30 -1.1 65 65 WNW 20 31 29.77 1008 10 16 0.00 0.00
3:53 pm 15:53 Cloudy 41 5 31 -0.6 67 67 W 22 35 29.80 1009 10 16 0.00 0.00
4:26 pm 16:26 Cloudy 40 4.4 32 0 73 73 W 23 37 29.83 1010 9 14 0.00 0.00
4:53 pm 16:53 Cloudy 40 4.4 32 0 73 73 W 15 24 29.82 1010 10 16 0.00 0.00
5:11 pm 17:11 Cloudy 40 4.4 32 0 73 73 W 17 28 29.83 1010 10 16 0.00 0.00
5:43 pm 17:43 Cloudy 40 4.4 31 -0.6 70 70 WNW 26 43 29.85 1011 10 16 0.00 0.00
5:53 pm 17:53 Cloudy 40 4.4 31 -0.6 70 70 WNW 29 46 29.85 1011 10 16 0.00 0.00
6:35 pm 18:35 Mostly Cloudy 38 3.3 32 0 79 79 WNW 17 28 29.91 1013 9 14 0.00 0.03
6:53 pm 18:53 Mostly Cloudy 38 3.3 30 -1.1 73 73 WNW 24 39 29.89 1012 10 16 0.00 0.03
7:53 pm 19:53 Mostly Cloudy 38 3.3 28 -2.2 68 68 WNW 18 30 29.91 1013 10 16 0.00 0.00
8:53 pm 20:53 Cloudy 38 3.3 29 -1.7 70 70 W 15 24 29.93 1014 10 16 0.00 0.00
9:03 pm 21:03 Cloudy 37 3 30 -1 75 75 W 16 26 29.97 1015 10 16 0.00 0.00
9:49 pm 21:49 Cloudy 39 4 28 -2 65 65 WNW 29 46 29.97 1015 10 16 0.00 0.00
9:53 pm 21:53 Cloudy 38 3.3 28 -2.2 68 68 WNW 21 33 29.94 1014 10 16 0.00 0.00
10:53 pm 22:53 Cloudy 38 3.3 25 -3.9 60 60 WNW 21 33 29.96 1015 10 16 0.00 0.00
11:53 pm 23:53 Cloudy 38 3.3 26 -3.3 62 62 WNW 22 35 29.96 1015 10 16 0.00 0.00

Powered by AerisWeather